Flag for Brazil Weather past 2 weeks in Porto Velho, Rondônia, Brazil

Now
77 °F

Thundershowers. Passing clouds.


Feels Like: 78 °F
Forecast: 74 / 84 °F
Wind: No wind

Location: Porto Velho Aeroporto


UV Index: 3 (Moderate)

Visibility: N/A


Pressure: N/A

Humidity: 89%

Dew point: 73 °F

Location of Porto VelhoLocation

Historic Weather in Porto Velho

°F

Porto Velho temperature yesterday

Maximum temperature yesterday: 100 °F (at 12:00 PM)
Minimum temperature yesterday: 75 °F (at 2:00 AM)
Average temperature yesterday: 80 °F

Past Weeks' High & Low Weather Summary

 TemperatureHumidityPressure
High100 °F (Apr 23, 12:00 PM)94% (Apr 9, 9:00 AM)30.01 "Hg (Apr 9, 9:00 AM)
Low72 °F (Apr 15, 9:00 AM)52% (Apr 17, 5:00 PM)29.74 "Hg (Apr 12, 3:00 PM)
Average79 °F84%29.87 "Hg
* Reported Apr 9 1:00 AM — Apr 24 1:00 AM, Porto Velho, Weather by CustomWeather, © 2014

Note: Actual official high and low records may vary slightly from our data, if they occured in-between our weather recording intervals... More about our weather records

Advertising

Historic Weather Conditions — Data for Previous 24 hours

 ConditionsComfort  
Time TempWeatherWind HumidityBarometerVisibility
1:00 AM
Apr 24
77 °FPassing clouds.No wind89%29.89 "HgN/A
11:00 PM
Apr 23
79 °FPassing clouds.No wind84%29.92 "HgN/A
10:00 PM79 °FPassing clouds.No wind84%29.89 "HgN/A
9:00 PM79 °FThundershowers. Partly cloudy.2 mph84%N/AN/A
8:00 PM79 °FPartly cloudy.3 mph84%29.83 "HgN/A
7:00 PM81 °FThunderstorms. Passing clouds.No wind79%29.83 "HgN/A
6:00 PM82 °FScattered showers. Partly sunny.5 mph79%N/AN/A
5:00 PM84 °FScattered showers. Broken clouds.7 mph74%N/AN/A
4:00 PM84 °FBroken clouds.5 mph79%29.77 "HgN/A
3:00 PM84 °FScattered showers. Partly sunny.7 mph74%N/AN/A
2:00 PM84 °FPartly sunny.2 mph79%29.83 "HgN/A
1:00 PM82 °FPartly sunny.7 mph84%29.89 "HgN/A
12:00 PM100 °FPartly sunny.6 mph85%29.92 "HgN/A
11:00 AM79 °FPartly sunny.5 mph89%29.95 "HgN/A
10:00 AM81 °FPartly sunny.7 mph84%29.95 "HgN/A
9:00 AM79 °FBroken clouds.3 mph89%29.95 "HgN/A
8:00 AM77 °FBroken clouds.7 mph89%29.92 "HgN/A
7:00 AM75 °FPartly sunny.3 mph94%29.89 "HgN/A
6:00 AM77 °FPassing clouds.7 mph89%29.86 "HgN/A
5:00 AM75 °FPassing clouds.6 mph94%29.86 "HgN/A
4:00 AM75 °FPassing clouds.6 mph89%29.86 "HgN/A
3:00 AM75 °FPassing clouds.No wind89%29.86 "HgN/A
2:00 AM75 °FPartly cloudy.5 mph89%29.86 "HgN/A
Weather by CustomWeather, © 2014

See weather overview